Find Starlink 4728

NORAD ID: 53793 Int'l Des: 2022-111 Owner: SPXS Country: US Constellation: starlink operational
LEOCIRCULAR

リアルタイム位置

3D地球を読み込み中...

Starlink 4728について

説明を読み込み中...

次回通過

Passes for default location (London). Set your location on the main map for personalized predictions.

高度履歴

Loading altitude history...

軌道要素

1 53793U 22111W 26121.18277904 -.00001528 00000-0 -77952-4 0 9996
2 53793 53.2185 38.2654 0001298 97.3912 262.7227 15.08829664201619
Epoch: May 1, 2026 • Age: 20 hours

現在のステータス

高度 540.3 km
速度 7.59 km/s
衛星直下点 1.72°N, 10.39°W
打ち上げ日 Sep 11, 2022
運用期間 3.6 years
タイプ internet

技術仕様

分類 Payload
質量 305.00 kg
乾燥質量 290.00 kg
総質量 305.00 kg
長さ 0.20 m
直径 2.80 m
スパン 9.00 m
形状 Box + pan
製造者 SPXS
バスタイプ Starlink
フェーズステータス In Orbit
所有者/国 SPXS/US

Most Searched